Tracking 28565 objects as of 3-Mar-2024
HD Live streaming from Space Station
objects crossing your sky now

SL-16 DEB

Track SL-16 DEB now!
10-day predictions


NORAD ID: 22419
Int'l Code: 1992-093DL
Perigee: 840.3 km
Apogee: 994.6 km
Inclination: 71.2 °
Period: 103.2 minutes
Semi major axis: 7288 km
RCS: 0.0695 m2 (small)
Launch date: December 25, 1992
Source: Commonwealth of Independent States (former USSR) (CIS)
Launch site: TYURATAM MISSILE AND SPACE COMPLEX (TTMTR)

Note: This is SATELLITE DEBRIS
Your satellite tracking list
Your tracking list is empty




NASA's NSSDC Master Catalog

Two Line Element Set (TLE):
1 22419U 92093DL  24063.35350491  .00000499  00000-0  38357-3 0  9997
2 22419  71.1792  51.1273 0105856   8.3183 351.9652 13.95241664584463
Source of the keplerian elements: AFSPC